Home   Weather   Grenchen   Past weeks

Flag for Switzerland Past Weather in Grenchen, Solothurn, Switzerland — Yesterday and Last 2 Weeks

Now
39 °F

Chilly.


Feels Like: 33 °F
Forecast: 21 / 38 °F
Wind: 8 mph from East

Location: Grenchen

Current Time: Dec 3, 2016 at 1:22:50 am

Latest Report: Dec 3, 2016 at 12:00 am


Visibility: N/A

Pressure: 30.15 "Hg

Humidity: 82%

Dew Point: 34 °F

Location of GrenchenLocation

Past Weather in Grenchen — Graph

°F

Grenchen Temperature Yesterday

Maximum temperature yesterday: 42 °F (at 2:00 pm)
Minimum temperature yesterday: 24 °F (at 8:00 am)
Average temperature yesterday: 32 °F

High & Low Weather Summary for the Past Weeks

 TemperatureHumidityPressure
High53 °F (Nov 22, 2:00 pm)100% (Nov 24, 9:00 am)30.69 "Hg (Nov 24, 9:00 am)
Low22 °F (Nov 30, 5:00 am)52% (Nov 28, 4:00 pm)29.68 "Hg (Nov 21, 3:00 pm)
Average38 °F90%30.09 "Hg
* Reported Nov 18 12:00 am — Dec 3 12:00 am, Grenchen, Weather by CustomWeather, © 2016

Note: Actual official high and low records may vary slightly from our data, if they occured in-between our weather recording intervals... More about our weather records

Advertising

Grenchen Weather History for the Previous 24 Hours

Scroll right to see more
 ConditionsComfort  
Time TempWeatherWind HumidityBarometerVisibility
12:00 am
Sat, Dec 3
39 °FChilly.8 mph82%30.15 "HgN/A
11:00 pm
Fri, Dec 2
40 °FChilly.16 mph78%30.16 "HgN/A
10:00 pm39 °FChilly.13 mph80%30.16 "HgN/A
9:00 pm35 °FChilly.9 mph88%30.18 "HgN/A
8:00 pm33 °FChilly.7 mph87%30.19 "HgN/A
7:00 pm35 °FChilly.7 mph85%30.19 "HgN/A
6:00 pm34 °FChilly.8 mph86%30.19 "HgN/A
5:00 pm39 °FChilly.12 mph74%30.17 "HgN/A
4:00 pm41 °FQuite cool.10 mph70%30.17 "HgN/A
3:00 pm42 °FQuite cool.10 mph69%30.17 "HgN/A
2:00 pm42 °FQuite cool.13 mph71%30.18 "HgN/A
1:00 pm40 °FChilly.12 mph80%30.22 "HgN/A
12:00 pm34 °FChilly.7 mph97%30.26 "HgN/A
11:00 am31 °FChilly.5 mph99%30.29 "HgN/A
10:00 am28 °FChilly.2 mph98%30.32 "HgN/A
9:00 am24 °FCold.2 mph98%30.34 "HgN/A
8:00 am24 °FCold.2 mph98%30.33 "HgN/A
7:00 am25 °FCold.5 mph98%30.33 "HgN/A
6:00 am24 °FCold.3 mph98%30.33 "HgN/A
5:00 am25 °FChilly.2 mph98%30.33 "HgN/A
4:00 am25 °FChilly.1 mph98%30.32 "HgN/A
3:00 am26 °FChilly.2 mph98%30.34 "HgN/A
2:00 am26 °FChilly.2 mph98%30.35 "HgN/A
1:00 am25 °FChilly.2 mph98%30.35 "HgN/A
Weather by CustomWeather, © 2016

See weather overviewHow to use our weather pages